timestamp,surface_pressure_avg,surface_temp_avg,battery_voltage,lat,long
2021-06-29 00:09:01+00:00,269.8398,14.7,13.05,47.84626,-54.09684
2021-06-29 00:19:01+00:00,280.7897,14.7,12.81,47.84626,-54.09684
2021-06-29 00:29:01+00:00,289.613,14.7,12.81,47.84626,-54.09684
2021-06-29 00:39:01+00:00,294.0314,14.7,12.81,47.84626,-54.09684
2021-06-29 00:49:01+00:00,304.1996,14.7,12.81,47.84626,-54.09684
2021-06-29 00:59:01+00:00,319.2096,14.7,12.81,47.84626,-54.09684
2021-06-29 01:09:01+00:00,329.3263,14.7,12.81,47.84626,-54.09684
2021-06-29 01:19:01+00:00,335.5179,14.68,12.81,47.84626,-54.09684
2021-06-29 01:29:01+00:00,343.1346,14.6,12.81,47.84626,-54.09684
2021-06-29 01:39:01+00:00,353.6246,14.6,12.81,47.84626,-54.09684
2021-06-29 01:49:01+00:00,358.24300000000005,14.6,12.81,47.84626,-54.09684
2021-06-29 01:59:01+00:00,358.8363,14.6,12.81,47.84626,-54.09684
2021-06-29 02:09:01+00:00,361.7397,14.6,12.81,47.84626,-54.09684
2021-06-29 02:19:01+00:00,366.4063,14.5,12.81,47.84626,-54.09684
2021-06-29 02:29:01+00:00,366.7029,14.4,12.81,47.84626,-54.09684
2021-06-29 02:39:01+00:00,366.31800000000004,14.25,12.81,47.84626,-54.09684
2021-06-29 02:49:01+00:00,370.3879,13.9,12.81,47.84626,-54.09684
2021-06-29 02:59:01+00:00,372.0179,13.8,12.81,47.84626,-54.09684
2021-06-29 03:09:01+00:00,368.0163,14.08,12.81,47.84626,-54.09684
2021-06-29 03:19:00+00:00,366.2213,14.17,12.73,47.84626,-54.09684
2021-06-29 03:29:00+00:00,367.4229,13.7,12.73,47.84626,-54.09684
2021-06-29 03:39:00+00:00,369.7947,14.04,12.73,47.84626,-54.09684
2021-06-29 03:49:00+00:00,367.4829,14.29,12.73,47.84626,-54.09684
2021-06-29 03:59:00+00:00,360.6796,14.01,12.73,47.84626,-54.09684
2021-06-29 04:09:00+00:00,361.463,13.23,12.73,47.84626,-54.09684
2021-06-29 04:19:01+00:00,365.5613,12.94,12.73,47.84626,-54.09684
2021-06-29 04:29:01+00:00,359.0096,13.49,12.73,47.84626,-54.09684
2021-06-29 04:39:01+00:00,349.5113,13.36,12.73,47.84626,-54.09684
2021-06-29 04:49:01+00:00,349.8329,12.86,12.73,47.84626,-54.09684
2021-06-29 04:59:01+00:00,348.2814,12.94,12.73,47.84626,-54.09684
2021-06-29 05:09:01+00:00,334.7213,13.5,12.73,47.84626,-54.09684
2021-06-29 05:19:00+00:00,325.6763,13.28,12.73,47.84626,-54.09684
2021-06-29 05:29:00+00:00,323.003,13.25,12.73,47.84626,-54.09684
2021-06-29 05:39:00+00:00,311.5847,13.68,12.73,47.84626,-54.09684
2021-06-29 05:49:00+00:00,299.3463,14.18,12.73,47.84626,-54.09684
2021-06-29 05:59:00+00:00,292.2564,14.2,12.73,47.84626,-54.09684
2021-06-29 06:09:00+00:00,283.9214,14.25,12.73,47.84626,-54.09684
2021-06-29 06:19:01+00:00,270.8547,14.3,12.65,47.84626,-54.09684
2021-06-29 06:29:01+00:00,262.1064,14.3,12.65,47.84626,-54.09684
2021-06-29 06:39:01+00:00,254.5014,14.36,12.65,47.84626,-54.09684
2021-06-29 06:49:01+00:00,243.1664,14.39,12.65,47.84626,-54.09684
2021-06-29 06:59:01+00:00,232.6081,14.4,12.65,47.84626,-54.09684
2021-06-29 07:09:01+00:00,228.0664,14.38,12.65,47.84626,-54.09684
2021-06-29 07:19:01+00:00,221.9964,14.33,12.65,47.84626,-54.09684
2021-06-29 07:29:01+00:00,216.6947,14.3,12.65,47.84626,-54.09684
2021-06-29 07:39:01+00:00,214.5981,14.3,12.65,47.84626,-54.09684
2021-06-29 07:49:01+00:00,210.7481,14.3,12.65,47.84626,-54.09684
2021-06-29 07:59:01+00:00,206.2681,14.3,12.65,47.84626,-54.09684
2021-06-29 08:09:01+00:00,202.3548,14.3,12.65,47.84626,-54.09684
2021-06-29 08:19:00+00:00,201.8298,14.2,12.65,47.84626,-54.09684
2021-06-29 08:29:00+00:00,199.8431,14.2,12.65,47.84626,-54.09684
2021-06-29 08:39:00+00:00,197.7581,14.2,12.65,47.84626,-54.09684
2021-06-29 08:49:00+00:00,200.2964,14.2,12.65,47.84626,-54.09684
2021-06-29 08:59:00+00:00,200.9215,14.2,12.65,47.84626,-54.09684
2021-06-29 09:09:00+00:00,200.5981,14.2,12.65,47.84626,-54.09684
2021-06-29 09:19:01+00:00,205.9232,14.2,12.81,47.84626,-54.09684
2021-06-29 09:29:01+00:00,209.4481,14.2,12.81,47.84626,-54.09684
2021-06-29 09:39:01+00:00,207.6564,14.2,12.81,47.84626,-54.09684
2021-06-29 09:49:01+00:00,206.0298,14.19,12.81,47.84626,-54.09684
2021-06-29 09:59:01+00:00,208.8282,13.86,12.81,47.84626,-54.09684
2021-06-29 10:09:01+00:00,212.5881,13.45,12.81,47.84626,-54.09684
2021-06-29 10:19:00+00:00,215.4599,13.6,13.44,47.84626,-54.09684
2021-06-29 10:29:00+00:00,216.6114,13.38,13.44,47.84626,-54.09684
2021-06-29 10:39:00+00:00,218.0114,13.2,13.44,47.84626,-54.09684
2021-06-29 10:49:00+00:00,220.5597,13.53,13.44,47.84626,-54.09684
2021-06-29 10:59:00+00:00,223.2714,14.08,13.44,47.84626,-54.09684
2021-06-29 11:09:00+00:00,226.373,13.9,13.44,47.84626,-54.09684
2021-06-29 11:19:00+00:00,229.4015,13.9,14.16,47.84626,-54.09684
2021-06-29 11:29:00+00:00,228.6248,13.93,14.16,47.84626,-54.09684
2021-06-29 11:39:00+00:00,227.6848,13.9,14.16,47.84626,-54.09684
2021-06-29 11:49:00+00:00,232.0798,13.93,14.16,47.84626,-54.09684
2021-06-29 11:59:00+00:00,238.6147,13.99,14.16,47.84626,-54.09684
2021-06-29 12:09:00+00:00,242.9231,13.9,14.16,47.84626,-54.09684
2021-06-29 12:19:01+00:00,245.2831,13.9,14.32,47.84626,-54.09684
2021-06-29 12:29:01+00:00,249.2164,13.98,14.32,47.84626,-54.09684
2021-06-29 12:39:01+00:00,254.0648,13.9,14.32,47.84626,-54.09684
2021-06-29 12:49:01+00:00,257.2448,13.24,14.32,47.84626,-54.09684
2021-06-29 12:59:01+00:00,260.5664,12.7,14.32,47.84626,-54.09684
2021-06-29 13:09:01+00:00,268.3247,12.65,14.32,47.84626,-54.09684
2021-06-29 13:19:01+00:00,277.3314,13.05,14.4,47.84626,-54.09684
2021-06-29 13:29:01+00:00,283.0297,12.65,14.4,47.84626,-54.09684
2021-06-29 13:39:01+00:00,285.1764,12.8,14.4,47.84626,-54.09684
2021-06-29 13:49:01+00:00,291.6047,12.62,14.4,47.84626,-54.09684
2021-06-29 13:59:01+00:00,300.9747,12.5,14.4,47.84626,-54.09684
2021-06-29 14:09:01+00:00,306.2798,12.4,14.4,47.84626,-54.09684
2021-06-29 14:19:01+00:00,308.2513,12.32,14.4,47.84626,-54.09684
2021-06-29 14:29:01+00:00,312.9497,12.3,14.4,47.84626,-54.09684
2021-06-29 14:39:01+00:00,315.6729,12.3,14.4,47.84626,-54.09684
2021-06-29 14:49:01+00:00,312.6379,12.3,14.4,47.84626,-54.09684
2021-06-29 14:59:01+00:00,310.5646,12.29,14.4,47.84626,-54.09684
2021-06-29 15:09:01+00:00,313.2563,12.26,14.4,47.84626,-54.09684
2021-06-29 15:19:00+00:00,312.6613,12.2,14.32,47.84626,-54.09684
2021-06-29 15:29:00+00:00,312.1013,12.1,14.32,47.84626,-54.09684
2021-06-29 15:39:00+00:00,315.7197,12.1,14.32,47.84626,-54.09684
2021-06-29 15:49:00+00:00,318.3848,12.1,14.32,47.84626,-54.09684
2021-06-29 15:59:00+00:00,315.0163,12.13,14.32,47.84626,-54.09684
2021-06-29 16:09:00+00:00,311.6846,12.15,14.32,47.84626,-54.09684
2021-06-29 16:19:01+00:00,311.7014,12.13,14.24,47.84626,-54.09684
2021-06-29 16:29:01+00:00,312.4497,12.1,14.24,47.84626,-54.09684
2021-06-29 16:39:01+00:00,307.7297,12.1,14.24,47.84626,-54.09684
2021-06-29 16:49:01+00:00,304.5147,12.13,14.24,47.84626,-54.09684
2021-06-29 16:59:01+00:00,303.3314,12.11,14.24,47.84626,-54.09684
2021-06-29 17:09:01+00:00,300.8614,12.1,14.24,47.84626,-54.09684
2021-06-29 17:19:01+00:00,296.7764,12.1,14.08,47.84626,-54.09684
2021-06-29 17:29:01+00:00,294.7531,12.1,14.08,47.84626,-54.09684
2021-06-29 17:39:01+00:00,291.103,12.12,14.08,47.84626,-54.09684
2021-06-29 17:49:01+00:00,286.358,12.16,14.08,47.84626,-54.09684
2021-06-29 17:59:01+00:00,278.898,12.18,14.08,47.84626,-54.09684
2021-06-29 18:09:01+00:00,269.7747,12.2,14.08,47.84626,-54.09684
2021-06-29 18:19:01+00:00,262.5397,12.2,13.84,47.84626,-54.09684
2021-06-29 18:29:01+00:00,254.8064,12.2,13.84,47.84626,-54.09684
2021-06-29 18:39:01+00:00,242.6714,12.2,13.84,47.84626,-54.09684
2021-06-29 18:49:01+00:00,233.1915,12.29,13.84,47.84626,-54.09684
2021-06-29 18:59:01+00:00,227.7047,12.28,13.84,47.84626,-54.09684
2021-06-29 19:09:01+00:00,219.4681,12.26,13.84,47.84626,-54.09684
2021-06-29 19:19:01+00:00,210.0565,12.22,13.76,47.84626,-54.09684
2021-06-29 19:29:01+00:00,203.8798,12.2,13.76,47.84626,-54.09684
2021-06-29 19:39:01+00:00,199.2781,12.2,13.76,47.84626,-54.09684
2021-06-29 19:49:01+00:00,193.9998,12.2,13.76,47.84626,-54.09684
2021-06-29 19:59:01+00:00,188.1948,12.2,13.76,47.84626,-54.09684
2021-06-29 20:09:01+00:00,181.9232,12.2,13.76,47.84626,-54.09684
2021-06-29 20:19:01+00:00,179.2564,12.25,13.68,47.84626,-54.09684
2021-06-29 20:29:01+00:00,178.8882,12.43,13.68,47.84626,-54.09684
2021-06-29 20:39:01+00:00,174.1832,12.67,13.68,47.84626,-54.09684
2021-06-29 20:49:01+00:00,173.5732,12.83,13.68,47.84626,-54.09684
2021-06-29 20:59:01+00:00,179.0998,12.93,13.68,47.84626,-54.09684
2021-06-29 21:09:01+00:00,178.6998,13.0,13.68,47.84626,-54.09684
2021-06-29 21:19:01+00:00,173.6748,13.0,13.68,47.84626,-54.09684
2021-06-29 21:29:01+00:00,175.0948,12.99,13.68,47.84626,-54.09684
2021-06-29 21:39:01+00:00,181.0981,12.8,13.68,47.84626,-54.09684
2021-06-29 21:49:01+00:00,185.0681,12.7,13.68,47.84626,-54.09684
2021-06-29 21:59:01+00:00,189.8281,12.6,13.68,47.84626,-54.09684
2021-06-29 22:09:01+00:00,192.9749,12.6,13.68,47.84626,-54.09684
2021-06-29 22:19:01+00:00,193.3481,12.68,13.44,47.84626,-54.09684
2021-06-29 22:29:01+00:00,195.5348,12.74,13.44,47.84626,-54.09684
2021-06-29 22:39:01+00:00,199.2848,12.78,13.44,47.84626,-54.09684
2021-06-29 22:49:01+00:00,202.6031,12.79,13.44,47.84626,-54.09684
2021-06-29 22:59:01+00:00,203.5965,12.8,13.44,47.84626,-54.09684
2021-06-29 23:09:01+00:00,206.0031,12.8,13.44,47.84626,-54.09684
2021-06-29 23:19:01+00:00,211.9998,12.87,13.13,47.84626,-54.09684
2021-06-29 23:29:01+00:00,218.2931,12.89,13.13,47.84626,-54.09684
2021-06-29 23:39:01+00:00,222.9331,12.9,13.13,47.84626,-54.09684
2021-06-29 23:49:01+00:00,225.1531,12.9,13.13,47.84626,-54.09684
2021-06-29 23:59:01+00:00,230.7298,12.9,13.13,47.84626,-54.09684
